Year,Month,Day,Hour,Minute,Value (Times are PST for temperature in C)
2012,06,25,00,00,10.60
2012,06,25,00,01,10.60
2012,06,25,00,02,10.40
2012,06,25,00,03,10.40
2012,06,25,00,04,10.40
2012,06,25,00,05,10.40
2012,06,25,00,06,10.40
2012,06,25,00,07,10.30
2012,06,25,00,08,10.30
2012,06,25,00,09,10.20
2012,06,25,00,10,10.20
2012,06,25,00,11,10.20
2012,06,25,00,12,10.10
2012,06,25,00,13,10.10
2012,06,25,00,14,10.10
2012,06,25,00,15,10.10
2012,06,25,00,16,10.00
2012,06,25,00,17,9.90
2012,06,25,00,18,9.90
2012,06,25,00,19,9.90
2012,06,25,00,20,9.90
2012,06,25,00,21,9.90
2012,06,25,00,22,9.90
2012,06,25,00,23,9.90
2012,06,25,00,24,9.90
2012,06,25,00,25,9.90
2012,06,25,00,26,9.90
2012,06,25,00,27,9.90
2012,06,25,00,28,9.90
2012,06,25,00,29,9.90
2012,06,25,00,30,9.90
2012,06,25,00,31,9.90
2012,06,25,00,32,9.90
2012,06,25,00,33,9.90
2012,06,25,00,34,9.90
2012,06,25,00,35,9.90
2012,06,25,00,36,9.90
2012,06,25,00,37,9.90
2012,06,25,00,38,9.90
2012,06,25,00,39,9.80
2012,06,25,00,40,9.80
2012,06,25,00,41,9.80
2012,06,25,00,42,9.80
2012,06,25,00,43,9.80
2012,06,25,00,44,9.70
2012,06,25,00,45,9.70
2012,06,25,00,46,9.70
2012,06,25,00,47,9.70
2012,06,25,00,48,9.70
2012,06,25,00,49,9.70
2012,06,25,00,50,9.70
2012,06,25,00,51,9.70
2012,06,25,00,52,9.70
2012,06,25,00,53,9.70
2012,06,25,00,54,9.70
2012,06,25,00,55,9.70
2012,06,25,00,56,9.60
2012,06,25,00,57,9.60
2012,06,25,00,58,9.60
2012,06,25,00,59,9.60
2012,06,25,01,00,9.60
2012,06,25,01,01,9.50
2012,06,25,01,02,9.50
2012,06,25,01,03,9.50
2012,06,25,01,04,9.50
2012,06,25,01,05,9.50
2012,06,25,01,06,9.50
2012,06,25,01,07,9.50
2012,06,25,01,08,9.50
2012,06,25,01,09,9.40
2012,06,25,01,10,9.40
2012,06,25,01,11,9.40
2012,06,25,01,12,9.40
2012,06,25,01,13,9.40
2012,06,25,01,14,9.40
2012,06,25,01,15,9.40
2012,06,25,01,16,9.40
2012,06,25,01,17,9.30
2012,06,25,01,18,9.30
2012,06,25,01,19,9.30
2012,06,25,01,20,9.30
2012,06,25,01,21,9.30
2012,06,25,01,22,9.30
2012,06,25,01,23,9.20
2012,06,25,01,24,9.20
2012,06,25,01,25,9.20
2012,06,25,01,26,9.20
2012,06,25,01,27,9.20
2012,06,25,01,28,9.20
2012,06,25,01,29,9.20
2012,06,25,01,30,9.20
2012,06,25,01,31,9.20
2012,06,25,01,32,9.20
2012,06,25,01,33,9.10
2012,06,25,01,34,9.10
2012,06,25,01,35,9.10
2012,06,25,01,36,9.10
2012,06,25,01,37,9.00
2012,06,25,01,38,9.00
2012,06,25,01,39,9.00
2012,06,25,01,40,9.00
2012,06,25,01,41,9.00
2012,06,25,01,42,8.90
2012,06,25,01,43,8.90
2012,06,25,01,44,8.90
2012,06,25,01,45,8.90
2012,06,25,01,46,8.90
2012,06,25,01,47,8.80
2012,06,25,01,48,8.80
2012,06,25,01,49,8.80
2012,06,25,01,50,8.80
2012,06,25,01,51,8.80
2012,06,25,01,52,8.70
2012,06,25,01,53,8.70
2012,06,25,01,54,8.70
2012,06,25,01,55,8.70
2012,06,25,01,56,8.70
2012,06,25,01,57,8.70
2012,06,25,01,58,8.70
2012,06,25,01,59,8.70
2012,06,25,02,00,8.70
2012,06,25,02,01,8.70
2012,06,25,02,02,8.70
2012,06,25,02,03,8.70
2012,06,25,02,04,8.60
2012,06,25,02,05,8.60
2012,06,25,02,06,8.60
2012,06,25,02,07,8.60
2012,06,25,02,08,8.60
2012,06,25,02,09,8.50
2012,06,25,02,10,8.50
2012,06,25,02,11,8.50
2012,06,25,02,12,8.40
2012,06,25,02,13,8.40
2012,06,25,02,14,8.40
2012,06,25,02,15,8.40
2012,06,25,02,16,8.30
2012,06,25,02,17,8.30
2012,06,25,02,18,8.30
2012,06,25,02,19,8.30
2012,06,25,02,20,8.30
2012,06,25,02,21,8.30
2012,06,25,02,22,8.30
2012,06,25,02,23,8.30
2012,06,25,02,24,8.20
2012,06,25,02,25,8.20
2012,06,25,02,26,8.20
2012,06,25,02,27,8.20
2012,06,25,02,28,8.20
2012,06,25,02,29,8.20
2012,06,25,02,30,8.20
2012,06,25,02,31,8.20
2012,06,25,02,32,8.20
2012,06,25,02,33,8.20
2012,06,25,02,34,8.20
2012,06,25,02,35,8.20
2012,06,25,02,36,8.10
2012,06,25,02,37,8.10
2012,06,25,02,38,8.10
2012,06,25,02,39,8.10
2012,06,25,02,40,8.10
2012,06,25,02,41,8.10
2012,06,25,02,42,8.10
2012,06,25,02,43,8.10
2012,06,25,02,44,8.10
2012,06,25,02,45,8.10
2012,06,25,02,46,8.10
2012,06,25,02,47,8.10
2012,06,25,02,48,8.10
2012,06,25,02,49,8.10
2012,06,25,02,50,8.10
2012,06,25,02,51,8.10
2012,06,25,02,52,8.00
2012,06,25,02,53,8.00
2012,06,25,02,54,8.10
2012,06,25,02,55,8.10
2012,06,25,02,56,8.10
2012,06,25,02,57,8.10
2012,06,25,02,58,8.10
2012,06,25,02,59,8.10
2012,06,25,03,00,8.10
2012,06,25,03,01,8.10
2012,06,25,03,02,8.10
2012,06,25,03,03,8.10
2012,06,25,03,04,8.10
2012,06,25,03,05,8.10
2012,06,25,03,06,8.10
2012,06,25,03,07,8.10
2012,06,25,03,08,8.10
2012,06,25,03,09,8.10
2012,06,25,03,10,8.00
2012,06,25,03,11,8.00
2012,06,25,03,12,8.00
2012,06,25,03,13,8.00
2012,06,25,03,14,8.00
2012,06,25,03,15,8.00
2012,06,25,03,16,8.00
2012,06,25,03,17,8.00
2012,06,25,03,18,8.00
2012,06,25,03,19,8.10
2012,06,25,03,20,8.10
2012,06,25,03,21,8.10
2012,06,25,03,22,8.10
2012,06,25,03,23,8.10
2012,06,25,03,24,8.10
2012,06,25,03,25,8.10
2012,06,25,03,26,8.10
2012,06,25,03,27,8.10
2012,06,25,03,28,8.00
2012,06,25,03,29,8.00
2012,06,25,03,30,8.00
2012,06,25,03,31,8.10
2012,06,25,03,32,8.10
2012,06,25,03,33,8.10
2012,06,25,03,34,8.10
2012,06,25,03,35,8.10
2012,06,25,03,36,8.10
2012,06,25,03,37,8.10
2012,06,25,03,38,8.10
2012,06,25,03,39,8.10
2012,06,25,03,40,8.10
2012,06,25,03,41,8.10
2012,06,25,03,42,8.10
2012,06,25,03,43,8.10
2012,06,25,03,44,8.00
2012,06,25,03,45,8.00
2012,06,25,03,46,8.00
2012,06,25,03,47,8.00
2012,06,25,03,48,8.00
2012,06,25,03,49,8.00
2012,06,25,03,50,8.00
2012,06,25,03,51,8.00
2012,06,25,03,52,8.00
2012,06,25,03,53,7.90
2012,06,25,03,54,7.90
2012,06,25,03,55,7.90
2012,06,25,03,56,7.90
2012,06,25,03,57,7.90
2012,06,25,03,58,7.90
2012,06,25,03,59,7.90
2012,06,25,04,00,7.80
2012,06,25,04,01,7.80
2012,06,25,04,02,7.80
2012,06,25,04,03,7.80
2012,06,25,04,04,7.80
2012,06,25,04,05,7.80
2012,06,25,04,06,7.80
2012,06,25,04,07,7.80
2012,06,25,04,08,7.80
2012,06,25,04,09,7.80
2012,06,25,04,10,7.80
2012,06,25,04,11,7.80
2012,06,25,04,12,7.80
2012,06,25,04,13,7.80
2012,06,25,04,14,7.80
2012,06,25,04,15,7.80
2012,06,25,04,16,7.80
2012,06,25,04,17,7.80
2012,06,25,04,18,7.80
2012,06,25,04,19,7.80
2012,06,25,04,20,7.80
2012,06,25,04,21,7.70
2012,06,25,04,22,7.70
2012,06,25,04,23,7.70
2012,06,25,04,24,7.70
2012,06,25,04,25,7.70
2012,06,25,04,26,7.70
2012,06,25,04,27,7.70
2012,06,25,04,28,7.70
2012,06,25,04,29,7.70
2012,06,25,04,30,7.70
2012,06,25,04,31,7.70
2012,06,25,04,32,7.70
2012,06,25,04,33,7.70
2012,06,25,04,34,7.70
2012,06,25,04,35,7.70
2012,06,25,04,36,7.70
2012,06,25,04,37,7.70
2012,06,25,04,38,7.70
2012,06,25,04,39,7.70
2012,06,25,04,40,7.70
2012,06,25,04,41,7.70
2012,06,25,04,42,7.70
2012,06,25,04,43,7.60
2012,06,25,04,44,7.60
2012,06,25,04,45,7.60
2012,06,25,04,46,7.60
2012,06,25,04,47,7.60
2012,06,25,04,48,7.60
2012,06,25,04,49,7.60
2012,06,25,04,50,7.60
2012,06,25,04,51,7.60
2012,06,25,04,52,7.50
2012,06,25,04,53,7.50
2012,06,25,04,54,7.50
2012,06,25,04,55,7.50
2012,06,25,04,56,7.50
2012,06,25,04,57,7.50
2012,06,25,04,58,7.50
2012,06,25,04,59,7.50
2012,06,25,05,00,7.50
2012,06,25,05,01,7.50
2012,06,25,05,02,7.50
2012,06,25,05,03,7.50
2012,06,25,05,04,7.50
2012,06,25,05,05,7.40
2012,06,25,05,06,7.40
2012,06,25,05,07,7.40
2012,06,25,05,08,7.40
2012,06,25,05,09,7.40
2012,06,25,05,10,7.40
2012,06,25,05,11,7.40
2012,06,25,05,12,7.40
2012,06,25,05,13,7.40
2012,06,25,05,14,7.40
2012,06,25,05,15,7.40
2012,06,25,05,16,7.50
2012,06,25,05,17,7.50
2012,06,25,05,18,7.50
2012,06,25,05,19,7.40
2012,06,25,05,20,7.40
2012,06,25,05,21,7.40
2012,06,25,05,22,7.40
2012,06,25,05,23,7.40
2012,06,25,05,24,7.40
2012,06,25,05,25,7.40
2012,06,25,05,26,7.40
2012,06,25,05,27,7.40
2012,06,25,05,28,7.40
2012,06,25,05,29,7.40
2012,06,25,05,30,7.40
2012,06,25,05,31,7.40
2012,06,25,05,32,7.40
2012,06,25,05,33,7.40
2012,06,25,05,34,7.40
2012,06,25,05,35,7.40
2012,06,25,05,36,7.40
2012,06,25,05,37,7.40
2012,06,25,05,38,7.40
2012,06,25,05,39,7.40
2012,06,25,05,40,7.40
2012,06,25,05,41,7.40
2012,06,25,05,42,7.40
2012,06,25,05,43,7.40
2012,06,25,05,44,7.40
2012,06,25,05,45,7.40
2012,06,25,05,46,7.40
2012,06,25,05,47,7.40
2012,06,25,05,48,7.50
2012,06,25,05,49,7.50
2012,06,25,05,50,7.50
2012,06,25,05,51,7.50
2012,06,25,05,52,7.50
2012,06,25,05,53,7.50
2012,06,25,05,54,7.50
2012,06,25,05,55,7.50
2012,06,25,05,56,7.50
2012,06,25,05,57,7.50
2012,06,25,05,58,7.60
2012,06,25,05,59,7.60
2012,06,25,06,00,7.60
2012,06,25,06,01,7.70
2012,06,25,06,02,7.70
2012,06,25,06,03,7.80
2012,06,25,06,04,7.80
2012,06,25,06,05,7.90
2012,06,25,06,06,8.00
2012,06,25,06,07,8.00
2012,06,25,06,08,8.10
2012,06,25,06,09,8.20
2012,06,25,06,10,8.20
2012,06,25,06,11,8.30
2012,06,25,06,12,8.30
2012,06,25,06,13,8.30
2012,06,25,06,14,8.30
2012,06,25,06,15,8.30
2012,06,25,06,16,8.40
2012,06,25,06,17,8.40
2012,06,25,06,18,8.40
2012,06,25,06,19,8.50
2012,06,25,06,20,8.50
2012,06,25,06,21,8.60
2012,06,25,06,22,8.70
2012,06,25,06,23,8.70
2012,06,25,06,24,8.70
2012,06,25,06,25,8.80
2012,06,25,06,26,8.80
2012,06,25,06,27,8.90
2012,06,25,06,28,8.90
2012,06,25,06,29,8.90
2012,06,25,06,30,9.00
2012,06,25,06,31,9.00
2012,06,25,06,32,9.00
2012,06,25,06,33,9.00
2012,06,25,06,34,9.10
2012,06,25,06,35,9.10
2012,06,25,06,36,9.20
2012,06,25,06,37,9.20
2012,06,25,06,38,9.30
2012,06,25,06,39,9.40
2012,06,25,06,40,9.50
2012,06,25,06,41,9.60
2012,06,25,06,42,9.70
2012,06,25,06,43,9.80
2012,06,25,06,44,9.90
2012,06,25,06,45,9.90
2012,06,25,06,46,10.10
2012,06,25,06,47,10.10
2012,06,25,06,48,10.20
2012,06,25,06,49,10.30
2012,06,25,06,50,10.40
2012,06,25,06,51,10.50
2012,06,25,06,52,10.60
2012,06,25,06,53,10.60
2012,06,25,06,54,10.70
2012,06,25,06,55,10.80
2012,06,25,06,56,10.90
2012,06,25,06,57,10.90
2012,06,25,06,58,11.00
2012,06,25,06,59,11.10
2012,06,25,07,00,11.10
2012,06,25,07,01,11.20
2012,06,25,07,02,11.20
2012,06,25,07,03,11.30
2012,06,25,07,04,11.30
2012,06,25,07,05,11.40
2012,06,25,07,06,11.40
2012,06,25,07,07,11.50
2012,06,25,07,08,11.60
2012,06,25,07,09,11.60
2012,06,25,07,10,11.70
2012,06,25,07,11,11.70
2012,06,25,07,12,11.80
2012,06,25,07,13,11.80
2012,06,25,07,14,11.90
2012,06,25,07,15,11.90
2012,06,25,07,16,12.00
2012,06,25,07,17,12.00
2012,06,25,07,18,12.10
2012,06,25,07,19,12.10
2012,06,25,07,20,12.10
2012,06,25,07,21,12.20
2012,06,25,07,22,12.20
2012,06,25,07,23,12.30
2012,06,25,07,24,12.30
2012,06,25,07,25,12.30
2012,06,25,07,26,12.40
2012,06,25,07,27,12.40
2012,06,25,07,28,12.50
2012,06,25,07,29,12.60
2012,06,25,07,30,12.60
2012,06,25,07,31,12.70
2012,06,25,07,32,12.80
2012,06,25,07,33,12.80
2012,06,25,07,34,12.90
2012,06,25,07,35,13.00
2012,06,25,07,36,13.10
2012,06,25,07,37,13.20
2012,06,25,07,38,13.30
2012,06,25,07,39,13.40
2012,06,25,07,40,13.50
2012,06,25,07,41,13.60
2012,06,25,07,42,13.70
2012,06,25,07,43,13.80
2012,06,25,07,44,13.90
2012,06,25,07,45,14.00
2012,06,25,07,46,14.20
2012,06,25,07,47,14.30
2012,06,25,07,48,14.40
2012,06,25,07,49,14.40
2012,06,25,07,50,14.40
2012,06,25,07,51,14.40
2012,06,25,07,52,14.40
2012,06,25,07,53,14.40
2012,06,25,07,54,14.40
2012,06,25,07,55,14.30
2012,06,25,07,56,14.30
2012,06,25,07,57,14.40
2012,06,25,07,58,14.40
2012,06,25,07,59,14.50
2012,06,25,08,00,14.60
2012,06,25,08,01,14.60
2012,06,25,08,02,14.70
2012,06,25,08,03,14.80
2012,06,25,08,04,14.80
2012,06,25,08,05,14.80
2012,06,25,08,06,14.80
2012,06,25,08,07,14.80
2012,06,25,08,08,14.80
2012,06,25,08,09,14.80
2012,06,25,08,10,14.90
2012,06,25,08,11,14.90
2012,06,25,08,12,15.00
2012,06,25,08,13,15.10
2012,06,25,08,14,15.10
2012,06,25,08,15,15.10
2012,06,25,08,16,15.10
2012,06,25,08,17,15.10
2012,06,25,08,18,15.10
2012,06,25,08,19,15.10
2012,06,25,08,20,15.10
2012,06,25,08,21,15.10
2012,06,25,08,22,15.10
2012,06,25,08,23,15.10
2012,06,25,08,24,15.10
2012,06,25,08,25,15.20
2012,06,25,08,26,15.30
2012,06,25,08,27,15.20
2012,06,25,08,28,15.10
2012,06,25,08,29,15.00
2012,06,25,08,30,14.90
2012,06,25,08,31,14.80
2012,06,25,08,32,14.80
2012,06,25,08,33,14.70
2012,06,25,08,34,14.60
2012,06,25,08,35,14.60
2012,06,25,08,36,14.60
2012,06,25,08,37,14.60
2012,06,25,08,38,14.60
2012,06,25,08,39,14.60
2012,06,25,08,40,14.60
2012,06,25,08,41,14.60
2012,06,25,08,42,14.60
2012,06,25,08,43,14.70
2012,06,25,08,44,14.60
2012,06,25,08,45,14.60
2012,06,25,08,46,14.50
2012,06,25,08,47,14.50
2012,06,25,08,48,14.50
2012,06,25,08,49,14.50
2012,06,25,08,50,14.40
2012,06,25,08,51,14.30
2012,06,25,08,52,14.40
2012,06,25,08,53,14.40
2012,06,25,08,54,14.40
2012,06,25,08,55,14.50
2012,06,25,08,56,14.50
2012,06,25,08,57,14.60
2012,06,25,08,58,14.60
2012,06,25,08,59,14.70
2012,06,25,09,00,14.70
2012,06,25,09,01,14.80
2012,06,25,09,02,14.80
2012,06,25,09,03,14.70
2012,06,25,09,04,14.70
2012,06,25,09,05,14.80
2012,06,25,09,06,14.80
2012,06,25,09,07,14.80
2012,06,25,09,08,14.80
2012,06,25,09,09,14.80
2012,06,25,09,10,14.80
2012,06,25,09,11,14.80
2012,06,25,09,12,14.80
2012,06,25,09,13,14.80
2012,06,25,09,14,14.80
2012,06,25,09,15,14.70
2012,06,25,09,16,14.70
2012,06,25,09,17,14.70
2012,06,25,09,18,14.70
2012,06,25,09,19,14.70
2012,06,25,09,20,14.60
2012,06,25,09,21,14.50
2012,06,25,09,22,14.40
2012,06,25,09,23,14.30
2012,06,25,09,24,14.30
2012,06,25,09,25,14.30
2012,06,25,09,26,14.30
2012,06,25,09,27,14.30
2012,06,25,09,28,14.20
2012,06,25,09,29,14.20
2012,06,25,09,30,14.20
2012,06,25,09,31,14.20
2012,06,25,09,32,14.20
2012,06,25,09,33,14.20
2012,06,25,09,34,14.20
2012,06,25,09,35,14.20
2012,06,25,09,36,14.20
2012,06,25,09,37,14.20
2012,06,25,09,38,14.20
2012,06,25,09,39,14.20
2012,06,25,09,40,14.20
2012,06,25,09,41,14.20
2012,06,25,09,42,14.30
2012,06,25,09,43,14.30
2012,06,25,09,44,14.30
2012,06,25,09,45,14.20
2012,06,25,09,46,14.20
2012,06,25,09,47,14.20
2012,06,25,09,48,14.20
2012,06,25,09,49,14.30
2012,06,25,09,50,14.40
2012,06,25,09,51,14.40
2012,06,25,09,52,14.40
2012,06,25,09,53,14.50
2012,06,25,09,54,14.50
2012,06,25,09,55,14.50
2012,06,25,09,56,14.50
2012,06,25,09,57,14.60
2012,06,25,09,58,14.60
2012,06,25,09,59,14.70
2012,06,25,10,00,14.70
2012,06,25,10,01,14.80
2012,06,25,10,02,14.80
2012,06,25,10,03,14.90
2012,06,25,10,04,15.00
2012,06,25,10,05,15.10
2012,06,25,10,06,15.20
2012,06,25,10,07,15.20
2012,06,25,10,08,15.30
2012,06,25,10,09,15.40
2012,06,25,10,10,15.50
2012,06,25,10,11,15.50
2012,06,25,10,12,15.60
2012,06,25,10,13,15.70
2012,06,25,10,14,15.80
2012,06,25,10,15,15.80
2012,06,25,10,16,15.80
2012,06,25,10,17,15.70
2012,06,25,10,18,15.60
2012,06,25,10,19,15.50
2012,06,25,10,20,15.50
2012,06,25,10,21,15.40
2012,06,25,10,22,15.30
2012,06,25,10,23,15.30
2012,06,25,10,24,15.30
2012,06,25,10,25,15.30
2012,06,25,10,26,15.30
2012,06,25,10,27,15.30
2012,06,25,10,28,15.30
2012,06,25,10,29,15.30
2012,06,25,10,30,15.30
2012,06,25,10,31,15.30
2012,06,25,10,32,15.30
2012,06,25,10,33,15.30
2012,06,25,10,34,15.30
2012,06,25,10,35,15.20
2012,06,25,10,36,15.20
2012,06,25,10,37,15.10
2012,06,25,10,38,15.00
2012,06,25,10,39,15.00
2012,06,25,10,40,14.90
2012,06,25,10,41,14.80
2012,06,25,10,42,14.80
2012,06,25,10,43,14.80
2012,06,25,10,44,14.80
2012,06,25,10,45,14.70
2012,06,25,10,46,14.70
2012,06,25,10,47,14.80
2012,06,25,10,48,14.80
2012,06,25,10,49,14.80
2012,06,25,10,50,14.90
2012,06,25,10,51,14.90
2012,06,25,10,52,15.00
2012,06,25,10,53,15.10
2012,06,25,10,54,15.10
2012,06,25,10,55,15.10
2012,06,25,10,56,15.10
2012,06,25,10,57,15.10
2012,06,25,10,58,15.00
2012,06,25,10,59,15.00
2012,06,25,11,00,15.00
2012,06,25,11,01,14.90
2012,06,25,11,02,14.90
2012,06,25,11,03,14.80
2012,06,25,11,04,14.80
2012,06,25,11,05,14.80
2012,06,25,11,06,14.90
2012,06,25,11,07,14.90
2012,06,25,11,08,15.00
2012,06,25,11,09,15.10
2012,06,25,11,10,15.10
2012,06,25,11,11,15.20
2012,06,25,11,12,15.20
2012,06,25,11,13,15.30
2012,06,25,11,14,15.30
2012,06,25,11,15,15.40
2012,06,25,11,16,15.50
2012,06,25,11,17,15.60
2012,06,25,11,18,15.60
2012,06,25,11,19,15.80
2012,06,25,11,20,15.90
2012,06,25,11,21,16.00
2012,06,25,11,22,16.10
2012,06,25,11,23,16.20
2012,06,25,11,24,16.20
2012,06,25,11,25,16.30
2012,06,25,11,26,16.40
2012,06,25,11,27,16.50
2012,06,25,11,28,16.60
2012,06,25,11,29,16.70
2012,06,25,11,30,16.70
2012,06,25,11,31,16.80
2012,06,25,11,32,16.80
2012,06,25,11,33,16.80
2012,06,25,11,34,16.80
2012,06,25,11,35,16.70
2012,06,25,11,36,16.70
2012,06,25,11,37,16.70
2012,06,25,11,38,16.80
2012,06,25,11,39,16.80
2012,06,25,11,40,17.00
2012,06,25,11,41,17.10
2012,06,25,11,42,17.30
2012,06,25,11,43,17.40
2012,06,25,11,44,17.60
2012,06,25,11,45,17.80
2012,06,25,11,46,17.90
2012,06,25,11,47,18.00
2012,06,25,11,48,18.10
2012,06,25,11,49,18.20
2012,06,25,11,50,18.20
2012,06,25,11,51,18.20
2012,06,25,11,52,18.20
2012,06,25,11,53,18.30
2012,06,25,11,54,18.30
2012,06,25,11,55,18.00
2012,06,25,11,56,17.80
2012,06,25,11,57,17.50
2012,06,25,11,58,17.30
2012,06,25,11,59,17.10
2012,06,25,12,00,17.00
2012,06,25,12,01,17.00
2012,06,25,12,02,16.80
2012,06,25,12,03,16.90
2012,06,25,12,04,16.90
2012,06,25,12,05,16.90
2012,06,25,12,06,16.70
2012,06,25,12,07,16.70
2012,06,25,12,08,16.80
2012,06,25,12,09,16.90
2012,06,25,12,10,16.90
2012,06,25,12,11,17.00
2012,06,25,12,12,17.00
2012,06,25,12,13,17.00
2012,06,25,12,14,17.00
2012,06,25,12,15,16.90
2012,06,25,12,16,16.90
2012,06,25,12,17,16.90
2012,06,25,12,18,17.00
2012,06,25,12,19,17.00
2012,06,25,12,20,17.00
2012,06,25,12,21,17.00
2012,06,25,12,22,17.10
2012,06,25,12,23,17.30
2012,06,25,12,24,17.40
2012,06,25,12,25,17.50
2012,06,25,12,26,17.50
2012,06,25,12,27,17.50
2012,06,25,12,28,17.60
2012,06,25,12,29,17.50
2012,06,25,12,30,17.50
2012,06,25,12,31,17.60
2012,06,25,12,32,17.70
2012,06,25,12,33,17.80
2012,06,25,12,34,17.90
2012,06,25,12,35,18.00
2012,06,25,12,36,18.10
2012,06,25,12,37,18.20
2012,06,25,12,38,18.30
2012,06,25,12,39,18.40
2012,06,25,12,40,18.50
2012,06,25,12,41,18.60
2012,06,25,12,42,18.60
2012,06,25,12,43,18.60
2012,06,25,12,44,18.60
2012,06,25,12,45,18.60
2012,06,25,12,46,18.50
2012,06,25,12,47,18.30
2012,06,25,12,48,18.20
2012,06,25,12,49,18.10
2012,06,25,12,50,18.00
2012,06,25,12,51,17.90
2012,06,25,12,52,17.80
2012,06,25,12,53,17.80
2012,06,25,12,54,17.80
2012,06,25,12,55,17.80
2012,06,25,12,56,17.70
2012,06,25,12,57,17.70
2012,06,25,12,58,17.60
2012,06,25,12,59,17.50
2012,06,25,13,00,17.50
2012,06,25,13,01,17.50
2012,06,25,13,02,17.50
2012,06,25,13,03,17.50
2012,06,25,13,04,17.70
2012,06,25,13,05,17.70
2012,06,25,13,06,17.80
2012,06,25,13,07,17.80
2012,06,25,13,08,17.90
2012,06,25,13,09,17.90
2012,06,25,13,10,17.90
2012,06,25,13,11,17.90
2012,06,25,13,12,17.90
2012,06,25,13,13,17.90
2012,06,25,13,14,17.80
2012,06,25,13,15,17.80
2012,06,25,13,16,17.90
2012,06,25,13,17,17.80
2012,06,25,13,18,17.80
2012,06,25,13,19,17.80
2012,06,25,13,20,17.90
2012,06,25,13,21,17.90
2012,06,25,13,22,17.90
2012,06,25,13,23,17.80
2012,06,25,13,24,17.80
2012,06,25,13,25,17.80
2012,06,25,13,26,17.80
2012,06,25,13,27,17.80
2012,06,25,13,28,17.70
2012,06,25,13,29,17.50
2012,06,25,13,30,17.40
2012,06,25,13,31,17.20
2012,06,25,13,32,17.10
2012,06,25,13,33,17.00
2012,06,25,13,34,16.90
2012,06,25,13,35,16.80
2012,06,25,13,36,16.70
2012,06,25,13,37,16.70
2012,06,25,13,38,16.70
2012,06,25,13,39,16.60
2012,06,25,13,40,16.60
2012,06,25,13,41,16.50
2012,06,25,13,42,16.40
2012,06,25,13,43,16.40
2012,06,25,13,44,16.40
2012,06,25,13,45,16.30
2012,06,25,13,46,16.20
2012,06,25,13,47,16.10
2012,06,25,13,48,16.10
2012,06,25,13,49,16.10
2012,06,25,13,50,16.10
2012,06,25,13,51,16.20
2012,06,25,13,52,16.10
2012,06,25,13,53,16.10
2012,06,25,13,54,16.10
2012,06,25,13,55,16.10
2012,06,25,13,56,16.00
2012,06,25,13,57,15.90
2012,06,25,13,58,15.90
2012,06,25,13,59,15.90
2012,06,25,14,00,15.90
2012,06,25,14,01,15.90
2012,06,25,14,02,16.00
2012,06,25,14,03,16.10
2012,06,25,14,04,16.10
2012,06,25,14,05,16.20
2012,06,25,14,06,16.20
2012,06,25,14,07,16.30
2012,06,25,14,08,16.30
2012,06,25,14,09,16.30
2012,06,25,14,10,16.30
2012,06,25,14,11,16.30
2012,06,25,14,12,16.30
2012,06,25,14,13,16.30
2012,06,25,14,14,16.30
2012,06,25,14,15,16.30
2012,06,25,14,16,16.40
2012,06,25,14,17,16.40
2012,06,25,14,18,16.40
2012,06,25,14,19,16.30
2012,06,25,14,20,16.30
2012,06,25,14,21,16.30
2012,06,25,14,22,16.40
2012,06,25,14,23,16.40
2012,06,25,14,24,16.50
2012,06,25,14,25,16.60
2012,06,25,14,26,16.70
2012,06,25,14,27,16.80
2012,06,25,14,28,16.80
2012,06,25,14,29,16.80
2012,06,25,14,30,16.90
2012,06,25,14,31,16.90
2012,06,25,14,32,16.90
2012,06,25,14,33,16.90
2012,06,25,14,34,16.90
2012,06,25,14,35,17.00
2012,06,25,14,36,17.10
2012,06,25,14,37,17.20
2012,06,25,14,38,17.30
2012,06,25,14,39,17.30
2012,06,25,14,40,17.40
2012,06,25,14,41,17.60
2012,06,25,14,42,17.60
2012,06,25,14,43,17.70
2012,06,25,14,44,17.70
2012,06,25,14,45,17.70
2012,06,25,14,46,17.60
2012,06,25,14,47,17.50
2012,06,25,14,48,17.30
2012,06,25,14,49,17.30
2012,06,25,14,50,17.20
2012,06,25,14,51,17.20
2012,06,25,14,52,17.20
2012,06,25,14,53,17.10
2012,06,25,14,54,17.10
2012,06,25,14,55,17.10
2012,06,25,14,56,17.20
2012,06,25,14,57,17.20
2012,06,25,14,58,17.20
2012,06,25,14,59,17.20
2012,06,25,15,00,17.20
2012,06,25,15,01,17.30
2012,06,25,15,02,17.30
2012,06,25,15,03,17.30
2012,06,25,15,04,17.30
2012,06,25,15,05,17.40
2012,06,25,15,06,17.40
2012,06,25,15,07,17.50
2012,06,25,15,08,17.60
2012,06,25,15,09,17.70
2012,06,25,15,10,17.60
2012,06,25,15,11,17.60
2012,06,25,15,12,17.60
2012,06,25,15,13,17.50
2012,06,25,15,14,17.50
2012,06,25,15,15,17.60
2012,06,25,15,16,17.60
2012,06,25,15,17,17.60
2012,06,25,15,18,17.70
2012,06,25,15,19,17.70
2012,06,25,15,20,17.70
2012,06,25,15,21,17.70
2012,06,25,15,22,17.70
2012,06,25,15,23,17.60
2012,06,25,15,24,17.50
2012,06,25,15,25,17.60
2012,06,25,15,26,17.70
2012,06,25,15,27,17.70
2012,06,25,15,28,17.80
2012,06,25,15,29,17.80
2012,06,25,15,30,17.90
2012,06,25,15,31,18.00
2012,06,25,15,32,18.20
2012,06,25,15,33,18.20
2012,06,25,15,34,18.20
2012,06,25,15,35,18.20
2012,06,25,15,36,18.20
2012,06,25,15,37,18.30
2012,06,25,15,38,18.30
2012,06,25,15,39,18.30
2012,06,25,15,40,18.40
2012,06,25,15,41,18.40
2012,06,25,15,42,18.40
2012,06,25,15,43,18.40
2012,06,25,15,44,18.40
2012,06,25,15,45,18.40
2012,06,25,15,46,18.50
2012,06,25,15,47,18.50
2012,06,25,15,48,18.60
2012,06,25,15,49,18.60
2012,06,25,15,50,18.70
2012,06,25,15,51,18.70
2012,06,25,15,52,18.70
2012,06,25,15,53,18.70
2012,06,25,15,54,18.70
2012,06,25,15,55,18.60
2012,06,25,15,56,18.60
2012,06,25,15,57,18.70
2012,06,25,15,58,18.70
2012,06,25,15,59,18.80
2012,06,25,16,00,18.90
2012,06,25,16,01,19.10
2012,06,25,16,02,19.10
2012,06,25,16,03,19.10
2012,06,25,16,04,19.10
2012,06,25,16,05,19.20
2012,06,25,16,06,19.20
2012,06,25,16,07,19.30
2012,06,25,16,08,19.30
2012,06,25,16,09,19.30
2012,06,25,16,10,19.30
2012,06,25,16,11,19.30
2012,06,25,16,12,19.30
2012,06,25,16,13,19.40
2012,06,25,16,14,19.50
2012,06,25,16,15,19.50
2012,06,25,16,16,19.60
2012,06,25,16,17,19.60
2012,06,25,16,18,19.60
2012,06,25,16,19,19.50
2012,06,25,16,20,19.50
2012,06,25,16,21,19.40
2012,06,25,16,22,19.30
2012,06,25,16,23,19.20
2012,06,25,16,24,19.20
2012,06,25,16,25,19.20
2012,06,25,16,26,19.20
2012,06,25,16,27,19.20
2012,06,25,16,28,19.10
2012,06,25,16,29,19.10
2012,06,25,16,30,19.00
2012,06,25,16,31,18.90
2012,06,25,16,32,18.90
2012,06,25,16,33,18.90
2012,06,25,16,34,19.00
2012,06,25,16,35,19.10
2012,06,25,16,36,19.10
2012,06,25,16,37,19.10
2012,06,25,16,38,19.10
2012,06,25,16,39,19.10
2012,06,25,16,40,19.10
2012,06,25,16,41,19.00
2012,06,25,16,42,18.90
2012,06,25,16,43,18.90
2012,06,25,16,44,18.90
2012,06,25,16,45,18.90
2012,06,25,16,46,18.80
2012,06,25,16,47,18.80
2012,06,25,16,48,18.80
2012,06,25,16,49,18.80
2012,06,25,16,50,18.70
2012,06,25,16,51,18.70
2012,06,25,16,52,18.70
2012,06,25,16,53,18.70
2012,06,25,16,54,18.70
2012,06,25,16,55,18.70
2012,06,25,16,56,18.60
2012,06,25,16,57,18.60
2012,06,25,16,58,18.60
2012,06,25,16,59,18.60
2012,06,25,17,00,18.60
2012,06,25,17,01,18.70
2012,06,25,17,02,18.60
2012,06,25,17,03,18.60
2012,06,25,17,04,18.60
2012,06,25,17,05,18.60
2012,06,25,17,06,18.60
2012,06,25,17,07,18.60
2012,06,25,17,08,18.70
2012,06,25,17,09,18.70
2012,06,25,17,10,18.70
2012,06,25,17,11,18.70
2012,06,25,17,12,18.70
2012,06,25,17,13,18.70
2012,06,25,17,14,18.70
2012,06,25,17,15,18.70
2012,06,25,17,16,18.60
2012,06,25,17,17,18.60
2012,06,25,17,18,18.60
2012,06,25,17,19,18.60
2012,06,25,17,20,18.60
2012,06,25,17,21,18.60
2012,06,25,17,22,18.60
2012,06,25,17,23,18.60
2012,06,25,17,24,18.50
2012,06,25,17,25,18.50
2012,06,25,17,26,18.50
2012,06,25,17,27,18.50
2012,06,25,17,28,18.40
2012,06,25,17,29,18.40
2012,06,25,17,30,18.40
2012,06,25,17,31,18.30
2012,06,25,17,32,18.30
2012,06,25,17,33,18.20
2012,06,25,17,34,18.10
2012,06,25,17,35,18.10
2012,06,25,17,36,18.10